Location: Unspecified
(0.0000°N, 0.0000°E)
Time: 07:12:49
(UTC+00:00)

N. Korean satellite - Pass Details

Date: 29 July 2021
Orbit: 451 x 498 km, 97.2° (Epoch: 31 July)

Event Time Altitude Azimuth Distance (km) Brightness Sun altitude
Rises 05:32:05 0° 346° (NNW) 2,488 10.2 -8.2°
Reaches altitude 10° 05:34:33 10° 328° (NNW) 1,607 9.1 -7.6°
Maximum altitude 05:37:03 19° 281° (WNW) 1,159 8.0 -7.0°
Drops below altitude 10° 05:39:32 10° 234° (SW) 1,597 8.6 -6.4°
Enters shadow 05:40:53 - 222° (SW) 2,051 9.2 -6.1°
